This demonstration page uses our WeatherBlox Daily Observations layout. Learn more.

Left ArrowRight Arrow

34.02893, -84.19858

Hourly Observations for December 1, 2018

Temp ( °F °C ) Dew Point ( °F °C ) Humidity (%) Winds ( mph kmh ) Pressure ( in mb ) Visibility ( mi km ) Precip ( " mm )
12:53 am 00:53 Partly Cloudy 57 13.9 44 6.7 62 62 VRB 5 7 30.00 1016 10 16 0.00 0.00
1:53 am 01:53 Mostly Cloudy 55 12.8 43 6.1 64 64 SE 5 7 29.99 1016 10 16 0.00 0.00
2:53 am 02:53 Partly Cloudy 55 12.8 42 5.6 62 62 SE 5 7 29.98 1015 10 16 0.00 0.00
3:53 am 03:53 Partly Cloudy 54 12.2 42 5.6 64 64 SE 6 9 29.96 1015 10 16 0.00 0.00
4:53 am 04:53 Cloudy 55 12.8 43 6.1 64 64 SSE 7 11 29.93 1014 10 16 0.00 0.00
5:53 am 05:53 Cloudy with Light Rain 54 12.2 44 6.7 69 69 VRB 6 9 29.95 1014 9 14 0.00 0.03
6:34 am 06:34 Cloudy with Light Rain 52 11.1 47 8.3 83 83 Calm 29.97 1015 7 11 0.04 1.02
6:53 am 06:53 Cloudy with Light Rain 51 10.6 49 9.4 92 92 VRB 3 6 29.95 1014 6 10 0.06 1.52
7:53 am 07:53 Cloudy with Light Rain 50 10 49 9.4 96 96 VRB 3 6 29.94 1014 4 6 0.21 5.33
8:00 am 08:00 Cloudy with Light Rain 50 10 49 9.4 96 96 VRB 5 7 29.94 1014 6 10 0.01 0.25
8:16 am 08:16 Cloudy with Heavy Rain 50 10 49 9.4 96 96 VRB 6 9 29.94 1014 3 4 0.08 2.03
8:26 am 08:26 Cloudy with Rain 50 10 48 8.9 93 93 ENE 3 6 29.94 1014 3 5 0.10 2.54
8:41 am 08:41 Cloudy with Heavy Rain 50 10 49 9.4 96 96 E 9 15 29.88 1012 2 3 0.17 4.32
8:50 am 08:50 Cloudy with Rain 50 10 48 9 94 94 VRB 3 6 29.94 1014 1 2 0.22 5.59
8:53 am 08:53 Cloudy with Light Rain 50 10 49 9.4 96 96 VRB 3 6 29.93 1014 5 8 0.22 5.59
9:00 am 09:00 Cloudy with Light Rain 51 10.6 50 10 96 96 VRB 5 7 29.94 1014 4 6 0.01 0.25
9:15 am 09:15 Cloudy with Nearby Thunderstorms 51 10.6 50 10 96 96 WNW 15 24 30.00 1016 4 6 0.04 1.02
9:30 am 09:30 Cloudy with Heavy Rain 51 10.6 50 10 96 96 N 10 17 29.97 1015 4 6 0.31 7.87
9:37 am 09:37 Cloudy with Heavy Rain 51 10.6 50 10 96 96 N 12 19 29.94 1014 4 6 0.36 9.14
9:53 am 09:53 Cloudy with Rain 51 10.6 50 10 96 96 E 8 13 29.91 1013 4 6 0.47 11.94
9:58 am 09:58 Cloudy with Rain 51 10.6 50 10 96 96 ESE 8 13 29.91 1013 2 3 0.03 0.76
10:05 am 10:05 Cloudy with Rain 51 10.6 51 10.6 100 100 VRB 5 7 29.91 1013 2 3 0.05 1.27
10:17 am 10:17 Cloudy with Light Rain 51 10.6 51 10.6 100 100 VRB 3 6 29.91 1013 5 8 0.06 1.52
10:36 am 10:36 Cloudy with Heavy Rain 51 10.6 51 10.6 100 100 VRB 5 7 29.91 1013 2 3 0.12 3.05
10:48 am 10:48 Cloudy with Light Rain 52 11 52 11 100 100 VRB 5 7 29.91 1013 4 6 0.14 3.56
10:53 am 10:53 Cloudy with Light Rain 52 11.1 51 10.6 97 97 ENE 5 7 29.89 1012 4 6 0.14 3.56
11:13 am 11:13 Cloudy with Rain 52 11.1 51 10.6 97 97 E 3 6 29.88 1012 2 3 0.06 1.52
11:45 am 11:45 Cloudy with Rain 53 11.7 52 11.1 96 96 NE 6 9 29.88 1012 3 4 0.24 6.10
11:53 am 11:53 Cloudy with Heavy Rain 53 11.7 52 11.1 96 96 NE 5 7 29.85 1011 1 2 0.32 8.13
12:07 pm 12:07 Cloudy with Heavy Rain 52 11.1 52 11.1 100 100 VRB 6 9 29.83 1010 1 1 0.21 5.33
12:19 pm 12:19 Cloudy with Heavy Rain 53 11.7 52 11.1 96 96 NE 6 9 29.85 1011 1 2 0.29 7.37
12:42 pm 12:42 Cloudy with Rain 53 11.7 52 11.1 96 96 E 6 9 29.83 1010 2 3 0.38 9.65
12:49 pm 12:49 Cloudy with Rain 54 12 52 11 94 94 E 6 9 29.83 1010 2 3 0.40 10.16
12:53 pm 12:53 Cloudy with Rain 53 11.7 52 11.1 96 96 ENE 5 7 29.82 1010 2 3 0.41 10.41
1:00 pm 13:00 Cloudy with Light Rain 53 11.7 52 11.1 96 96 NNE 6 9 29.83 1010 3 5 0.00 0.03
1:09 pm 13:09 Cloudy with Heavy Rain 53 11.7 53 11.7 100 100 ENE 5 7 29.83 1010 2 3 0.04 1.02
1:15 pm 13:15 Cloudy with Light Rain 54 12.2 53 11.7 97 97 ENE 5 7 29.83 1010 3 5 0.05 1.27
1:53 pm 13:53 Cloudy 54 12.2 53 11.7 97 97 ENE 5 7 29.80 1009 7 11 0.06 1.52
2:31 pm 14:31 Cloudy with Light Rain 54 12.2 53 11.7 97 97 VRB 7 11 29.80 1009 3 4 0.02 0.51
2:40 pm 14:40 Cloudy with Light Rain 54 12.2 53 11.7 97 97 VRB 6 9 29.77 1008 4 6 0.02 0.51
2:53 pm 14:53 Cloudy 54 12.2 53 11.7 97 97 VRB 6 9 29.77 1008 7 11 0.02 0.51
3:53 pm 15:53 Cloudy with Mist and Fog 55 12.8 54 12.2 96 96 VRB 3 6 29.77 1008 5 8 0.02 0.51
4:09 pm 16:09 Cloudy with Mist and Fog 55 12.8 54 12.2 96 96 VRB 6 9 29.77 1008 2 3 0.00 0.00
4:25 pm 16:25 Cloudy with Light Rain 55 12.8 54 12.2 96 96 VRB 3 6 29.77 1008 2 3 0.01 0.25
4:35 pm 16:35 Cloudy with Light Rain 55 12.8 54 12.2 96 96 VRB 6 9 29.77 1008 3 5 0.02 0.51
4:48 pm 16:48 Cloudy with Light Rain 55 13 54 12 94 94 Calm 29.77 1008 2 3 0.02 0.51
4:53 pm 16:53 Cloudy with Light Rain 55 12.8 54 12.2 96 96 VRB 3 6 29.77 1008 2 3 0.03 0.76
5:02 pm 17:02 Cloudy with Light Rain 55 12.8 54 12.2 96 96 Calm 29.77 1008 3 5 0.00 0.03
5:53 pm 17:53 Cloudy with Light Rain 55 12.8 55 12.8 100 100 E 6 9 29.77 1008 4 6 0.01 0.25
6:21 pm 18:21 Cloudy with Mist and Fog 55 12.8 55 12.8 100 100 VRB 3 6 29.77 1008 2 3 0.01 0.25
6:29 pm 18:29 Cloudy with Mist and Fog 55 12.8 55 12.8 100 100 E 3 6 29.77 1008 2 3 0.01 0.25
6:53 pm 18:53 Cloudy with Mist and Fog 55 12.8 55 12.8 100 100 Calm 29.77 1008 4 6 0.01 0.25
7:08 pm 19:08 Cloudy with Mist and Fog 56 13.3 55 12.8 97 97 E 3 6 29.77 1008 6 10 0.00 0.00
7:53 pm 19:53 Cloudy with Mist and Fog 55 12.8 55 12.8 100 100 Calm 29.78 1008 4 6 0.00 0.00
8:08 pm 20:08 Cloudy with Light Rain 55 12.8 55 12.8 100 100 VRB 3 6 29.77 1008 2 3 0.01 0.25
8:30 pm 20:30 Cloudy with Mist and Fog 55 12.8 55 12.8 100 100 VRB 3 6 29.77 1008 4 6 0.01 0.25
8:53 pm 20:53 Cloudy with Mist and Fog 55 12.8 55 12.8 100 100 Calm 29.76 1008 4 6 0.01 0.25
9:27 pm 21:27 Cloudy with Mist and Fog 55 12.8 55 12.8 100 100 Calm 29.77 1008 2 3 0.00 0.00
9:38 pm 21:38 Cloudy with Light Rain 55 12.8 55 12.8 100 100 VRB 5 7 29.74 1007 1 2 0.00 0.03
9:53 pm 21:53 Cloudy with Mist and Fog 55 12.8 55 12.8 100 100 VRB 3 6 29.76 1008 1 2 0.01 0.25
10:21 pm 22:21 Cloudy with Mist and Fog 55 12.8 55 12.8 100 100 E 5 7 29.74 1007 3 4 0.01 0.25
10:35 pm 22:35 Cloudy with Mist and Fog 56 13.3 56 13.3 100 100 VRB 3 6 29.77 1008 3 5 0.01 0.25
10:43 pm 22:43 Cloudy with Mist and Fog 56 13.3 56 13.3 100 100 Calm 29.77 1008 3 4 0.01 0.25
10:53 pm 22:53 Cloudy with Mist and Fog 56 13.3 56 13.3 100 100 Calm 29.75 1008 3 4 0.01 0.25
11:12 pm 23:12 Cloudy with Mist and Fog 57 13.9 56 13.3 96 96 Calm 29.71 1006 3 5 0.00 0.00
11:45 pm 23:45 Cloudy with Mist and Fog 58 14.4 57 13.9 97 97 Calm 29.71 1006 4 6 0.00 0.00
11:53 pm 23:53 Cloudy with Mist and Fog 58 14.4 57 13.9 97 97 Calm 29.73 1007 3 5 0.00 0.00

Powered by AerisWeather